Simultaneous Nadir Overpasses (SNOs) Predictions

Prediction of SNOs between LANDSAT-8 and NOAA-19 Satellite Orbit:

Table of predicted SNOs for the next 14.0 days since TLE Epoch: 8/7/2021
Index Date (LANDSAT-8) Time (LANDSAT-8) Lat,Lon (LANDSAT-8) SZA (LANDSAT-8 ) Date (NOAA-19) Time (NOAA-19) Lat,Lon (NOAA-19) SZA (NOAA-19 ) Distance(km) Time Diff (sec)
1 08/09/2021 06:30:06 80.48, 114.61 66.08 08/09/2021 06:29:14 80.47, 114.65 66.06 1.48 52
2 08/09/2021 07:19:34 -80.45, -78.06 113.96 08/09/2021 07:20:19 -80.47, -78.03 113.93 1.70 45
3 08/11/2021 12:53:18 80.47, 18.63 66.72 08/11/2021 12:53:22 80.48, 18.64 66.73 1.20 4
4 08/13/2021 18:27:03 -80.48, 115.32 112.58 08/13/2021 18:26:35 -80.49, 115.22 112.59 2.01 28
5 08/13/2021 19:16:29 80.48, -77.06 67.43 08/13/2021 19:17:29 80.46, -77.06 67.45 1.38 60
6 08/16/2021 00:00:47 80.48,-148.06 68.14 08/15/2021 23:59:38 80.49,-148.05 68.12 0.89 69
7 08/16/2021 00:50:15 -80.46, 19.32 111.90 08/16/2021 00:50:42 -80.48, 19.43 111.86 3.01 27
8 08/18/2021 06:23:58 80.49, 116.22 68.88 08/18/2021 06:23:45 80.48, 116.22 68.87 1.16 13
9 08/20/2021 11:57:43 -80.50,-147.09 110.36 08/20/2021 11:56:57 -80.49,-147.20 110.40 2.57 46



Historial Predications of SNOs between LANDSAT-8 and NOAA-19
